Погода в Куликове

Россия / Республика Мордовия     54°24′37″N   43°38′54″E
темп.,
°C
ветер,
м/с
пор.,
м/с
влажн.,
%
обл.,
%
осадки,
мм/ч
давл.,
гПа
погр.,
м
19 июня, сб
сб1900:00+13ююв2282100 0.0 102711
03:00+12ююз22885 0.0 102810
06:00+16юз128259 0.0 1028106
09:00+20зюз23675 0.0 1027518
12:00+23зюз33565 0.0 1026874
15:00+25юз34528 0.0 10251104
18:00+24зюз247163 0.0 1024177
21:00+18з227997 0.0 102516
20 июня, вс
вс2000:00+16з33805 0.0 102525
03:00+15з22895 0.0 102519
06:00+18з23833 0.0 1025110
09:00+23з22685 0.0 1025443
12:00+26зюз22574 0.0 1024930
15:00+27юз12500 0.0 10231162
18:00+26ю22650 0.0 1022133
21:00+20юз22780 0.0 102313
21 июня, пн
пн2100:00+19ююз228532 0.0 102315
03:00+18юз2288100 0.0 102311
06:00+20ююз1182100 0.0 102475
09:00+24ююз227199 0.0 1024468
12:00+27ююз225876 0.0 10231107
15:00+27зюз2263100 0.0 1022661
18:00+27зюз1267100 0.0 1022247
21:00+21ю228139 0.0 102212
22 июня, вт
вт2200:00+20ю118588 0.0 102311
03:00+19ююз11870 0.0 102311
06:00+21ю01820 0.0 102369
09:00+26ююв11690 0.0 1023515
12:00+28ю12553 0.0 10231386
15:00+29юз22500 0.0 10221740
18:00+28зюз22641 0.0 1022192
21:00+23ююв11690 0.0 102211
23 июня, ср
ср2300:00+21ююв117621 0.0 102311
03:00+20вюв11820 0.0 102311
06:00+23ююв11770 0.0 102461
09:00+27ююв116585 0.0 1023465
12:00+30св01537 0.0 10231426
15:00+30юз11431 0.0 10221529
18:00+30св105753 0.0 1022740
21:00+24ююз33690 0.0 102222